Emerald Express — HO2486 — position and weather

sailwx.info

Track history (hours):
 
Tides and Currents Weather Stations Pressure Air Temp Water Temp Dewpoint Dewpoint Depression Visibility Wind Speed Wind Dir Waves Ship Positions

Emerald Express

Last reported at 2018-Jun-23 08:25 UTC. Time now 2018-Jun-24 09:11 UTC.
Position N 25°48' W 079°33'.

Length 53 m; draft 2 m.

Type: Cargo ship. MMSI: 354580000.

Date/timePositionNaut miles runAvg speedWind from/ knotsBaromVisibWave heightAir tempDewpointWater temp
2018-Jun-23 08:25N 25°48' W 079°33'3 6.6
2018-Jun-23 08:00N 25°49' W 079°35'3 6.4
2018-Jun-23 07:30N 25°51' W 079°38'3 6.1
2018-Jun-23 07:00N 25°52' W 079°41'3 5.8
2018-Jun-23 06:30N 25°54' W 079°44'3 5.7
2018-Jun-23 06:00N 25°56' W 079°47'3 5.6
2018-Jun-23 05:30N 25°57' W 079°49'3 5.7
2018-Jun-23 05:00N 25°58' W 079°52'3 5.8
2018-Jun-23 04:30N 25°60' W 079°55'3 6.0
2018-Jun-23 04:00N 26°02' W 079°58'3 5.8
2018-Jun-23 03:30N 26°03' W 080°00'3 6.1
2018-Jun-23 03:00N 26°05' W 080°03'3 6.1
2018-Jun-23 02:28N 26°05' W 080°07'2 3.6
2018-Jun-23 02:00N 26°04' W 080°08'0 0.0
2018-Jun-23 01:30N 26°04' W 080°08'0 0.0
2018-Jun-23 01:00N 26°04' W 080°08'0 0.0
2018-Jun-23 00:30N 26°04' W 080°08'0 0.0
2018-Jun-23 00:00N 26°04' W 080°08'0 0.0
2018-Jun-22 23:30N 26°04' W 080°08'0 0.0
2018-Jun-22 23:00N 26°04' W 080°08'0 0.0
2018-Jun-22 22:30N 26°04' W 080°08'0 0.0
2018-Jun-22 22:00N 26°04' W 080°08'0 0.0
2018-Jun-22 21:30N 26°04' W 080°08'0 0.0
2018-Jun-22 20:59N 26°04' W 080°08'0 0.0
2018-Jun-22 20:30N 26°04' W 080°08'0 0.0
2018-Jun-22 20:00N 26°04' W 080°08'0 0.0
2018-Jun-22 19:30N 26°04' W 080°08'0 0.0
2018-Jun-22 19:00N 26°04' W 080°08'0 0.0
2018-Jun-22 18:30N 26°04' W 080°08'0 0.3
2018-Jun-22 18:00N 26°04' W 080°08'3 5.6
2018-Jun-22 17:30N 26°06' W 080°06'510.2
2018-Jun-22 17:00N 26°04' W 080°00'510.2
2018-Jun-22 16:30N 26°02' W 079°55'510.0
2018-Jun-22 16:00N 26°01' W 079°50'510.0
2018-Jun-22 15:30N 25°59' W 079°44'510.2
2018-Jun-22 15:00N 25°58' W 079°39'510.1
2018-Jun-22 14:30N 25°56' W 079°34'  
2018-Jun-19 21:15N 26°05' W 079°34'2 8.7
2018-Jun-19 21:00N 26°05' W 079°37'4 8.6
2018-Jun-19 20:30N 26°05' W 079°41'4 8.3
2018-Jun-19 20:00N 26°05' W 079°46'4 8.2
2018-Jun-19 19:30N 26°05' W 079°51'4 8.2
2018-Jun-19 19:00N 26°05' W 079°55'4 8.3
2018-Jun-19 18:30N 26°05' W 079°60'4 8.4
2018-Jun-19 18:00N 26°05' W 080°05'3 5.6
2018-Jun-19 17:30N 26°04' W 080°07'1 1.3
2018-Jun-19 17:00N 26°04' W 080°08'0 0.0
2018-Jun-19 16:30N 26°04' W 080°08'0 0.1
2018-Jun-19 16:00N 26°04' W 080°08'0 0.0
2018-Jun-19 15:30N 26°04' W 080°08'0 0.0
2018-Jun-19 15:00N 26°04' W 080°08'0 0.0
2018-Jun-19 14:30N 26°04' W 080°08'0 0.0
2018-Jun-19 14:00N 26°04' W 080°08'0 0.0
2018-Jun-19 13:30N 26°04' W 080°08'0 0.0
2018-Jun-19 13:00N 26°04' W 080°08'0 0.0
2018-Jun-19 12:30N 26°04' W 080°08'0 0.0
2018-Jun-19 12:00N 26°04' W 080°08'0 0.0
2018-Jun-19 11:29N 26°04' W 080°08'0 0.0
2018-Jun-19 11:00N 26°04' W 080°08'0 0.0
2018-Jun-19 10:30N 26°04' W 080°08'0 0.0
2018-Jun-19 10:00N 26°04' W 080°08'0 0.0
2018-Jun-19 09:30N 26°04' W 080°08'0 0.0
2018-Jun-19 09:00N 26°04' W 080°08'0 0.0
2018-Jun-19 08:30N 26°04' W 080°08'0 0.0
2018-Jun-19 07:58N 26°04' W 080°08'0 0.0
2018-Jun-19 07:30N 26°04' W 080°08'0 0.0
2018-Jun-19 07:00N 26°04' W 080°08'0 0.0
2018-Jun-19 06:30N 26°04' W 080°08'0 0.0
2018-Jun-19 06:00N 26°04' W 080°08'0 0.0
2018-Jun-19 05:30N 26°04' W 080°08'0 0.0
2018-Jun-19 05:00N 26°04' W 080°08'0 0.0
2018-Jun-19 04:30N 26°04' W 080°08'0 0.0
2018-Jun-19 04:00N 26°04' W 080°08'0 0.0
2018-Jun-19 03:30N 26°04' W 080°08'0 0.0
2018-Jun-19 03:00N 26°04' W 080°08'0 0.0
2018-Jun-19 02:30N 26°04' W 080°08'0 0.0
2018-Jun-19 02:00N 26°04' W 080°08'0 0.0
2018-Jun-19 01:30N 26°04' W 080°08'0 0.0
2018-Jun-19 01:00N 26°04' W 080°08'0 0.0
2018-Jun-19 00:30N 26°04' W 080°08'0 0.0
2018-Jun-19 00:00N 26°04' W 080°08'1 1.7
2018-Jun-18 23:30N 26°04' W 080°07'0 0.6
2018-Jun-18 22:59N 26°04' W 080°07'1 1.2
2018-Jun-18 22:30N 26°04' W 080°08'0 0.0
2018-Jun-18 22:00N 26°04' W 080°08'0 0.0
2018-Jun-18 21:30N 26°04' W 080°08'0 0.0
2018-Jun-18 21:00N 26°04' W 080°08'0 0.0
2018-Jun-18 20:30N 26°04' W 080°08'0 0.0
2018-Jun-18 20:00N 26°04' W 080°08'0 0.0
2018-Jun-18 19:30N 26°04' W 080°08'0 0.0
2018-Jun-18 19:00N 26°04' W 080°08'0 0.0
2018-Jun-18 18:30N 26°04' W 080°08'0 0.0
2018-Jun-18 18:00N 26°04' W 080°08'0 0.0
2018-Jun-18 17:29N 26°04' W 080°08'0 0.0
2018-Jun-18 17:00N 26°04' W 080°08'0 0.0
2018-Jun-18 16:29N 26°04' W 080°08'0 0.0
2018-Jun-18 16:00N 26°04' W 080°08'0 0.1
2018-Jun-18 15:30N 26°04' W 080°08'0 0.0
2018-Jun-18 15:00N 26°04' W 080°08'0 0.0
2018-Jun-18 14:30N 26°04' W 080°08'0 0.0
2018-Jun-18 14:00N 26°04' W 080°08'0 0.0
2018-Jun-18 13:30N 26°04' W 080°08'0 0.0
2018-Jun-18 13:00N 26°04' W 080°08'0 0.0
2018-Jun-18 12:30N 26°04' W 080°08'0 0.0
2018-Jun-18 12:00N 26°04' W 080°08'0 0.0
2018-Jun-18 11:30N 26°04' W 080°08'0 0.0
2018-Jun-18 11:00N 26°04' W 080°08'0 0.0
2018-Jun-18 10:30N 26°04' W 080°08'0 0.0
2018-Jun-18 10:00N 26°04' W 080°08'0 0.0
2018-Jun-18 09:30N 26°04' W 080°08'0 0.0
2018-Jun-18 08:59N 26°04' W 080°08'0 0.0
2018-Jun-18 08:30N 26°04' W 080°08'0 0.0
2018-Jun-18 08:00N 26°04' W 080°08'0 0.0
2018-Jun-18 07:30N 26°04' W 080°08'0 0.0
2018-Jun-18 07:00N 26°04' W 080°08'0 0.0
2018-Jun-18 06:30N 26°04' W 080°08'0 0.0
2018-Jun-18 06:00N 26°04' W 080°08'0 0.0
2018-Jun-18 05:30N 26°04' W 080°08'0 0.0
2018-Jun-18 05:00N 26°04' W 080°08'0 0.0
2018-Jun-18 04:30N 26°04' W 080°08'0 0.0
2018-Jun-18 03:59N 26°04' W 080°08'0 0.0
2018-Jun-18 03:30N 26°04' W 080°08'0 0.0
2018-Jun-18 03:00N 26°04' W 080°08'0 0.0
2018-Jun-18 02:30N 26°04' W 080°08'0 0.0
2018-Jun-18 02:00N 26°04' W 080°08'0 0.0
2018-Jun-18 01:30N 26°04' W 080°08'0 0.0
2018-Jun-18 01:00N 26°04' W 080°08'0 0.0
2018-Jun-18 00:30N 26°04' W 080°08'0 0.0
2018-Jun-18 00:00N 26°04' W 080°08'0 0.0
2018-Jun-17 23:30N 26°04' W 080°08'0 0.0
2018-Jun-17 23:00N 26°04' W 080°08'0 0.0
2018-Jun-17 22:30N 26°04' W 080°08'0 0.0
2018-Jun-17 22:00N 26°04' W 080°08'0 0.0
2018-Jun-17 21:30N 26°04' W 080°08'0 0.0
2018-Jun-17 21:00N 26°04' W 080°08'0 0.0
2018-Jun-17 20:30N 26°04' W 080°08'0 0.0
2018-Jun-17 20:00N 26°04' W 080°08'0 0.0
2018-Jun-17 19:30N 26°04' W 080°08'0 0.0
2018-Jun-17 19:00N 26°04' W 080°08'0 0.0
2018-Jun-17 18:30N 26°04' W 080°08'0 0.0
2018-Jun-17 18:00N 26°04' W 080°08'0 0.0
2018-Jun-17 17:30N 26°04' W 080°08'0 0.0
2018-Jun-17 17:00N 26°04' W 080°08'0 0.0
2018-Jun-17 16:30N 26°04' W 080°08'0 0.0
2018-Jun-17 16:00N 26°04' W 080°08'0 0.0
2018-Jun-17 15:30N 26°04' W 080°08'0 0.0
2018-Jun-17 15:00N 26°04' W 080°08'0 0.0
2018-Jun-17 14:30N 26°04' W 080°08'0 0.0
2018-Jun-17 13:59N 26°04' W 080°08'0 0.0
2018-Jun-17 13:30N 26°04' W 080°08'0 0.0
2018-Jun-17 13:00N 26°04' W 080°08'0 0.0
2018-Jun-17 12:30N 26°04' W 080°08'0 0.0
2018-Jun-17 12:00N 26°04' W 080°08'0 0.1
2018-Jun-17 11:30N 26°04' W 080°08'0 0.0
2018-Jun-17 11:00N 26°04' W 080°08'0 0.0
2018-Jun-17 10:30N 26°04' W 080°08'0 0.0
2018-Jun-17 10:00N 26°04' W 080°08'0 0.0
2018-Jun-17 09:30N 26°04' W 080°08'0 0.0
2018-Jun-17 08:58N 26°04' W 080°08'0 0.0
2018-Jun-17 08:30N 26°04' W 080°08'0 0.0
2018-Jun-17 08:00N 26°04' W 080°08'0 0.0
2018-Jun-17 07:30N 26°04' W 080°08'0 0.0
2018-Jun-17 07:00N 26°04' W 080°08'0 0.0
2018-Jun-17 06:30N 26°04' W 080°08'0 0.0
2018-Jun-17 06:00N 26°04' W 080°08'0 0.0
2018-Jun-17 05:29N 26°04' W 080°08'0 0.0
2018-Jun-17 05:00N 26°04' W 080°08'0 0.0
2018-Jun-17 04:30N 26°04' W 080°08'0 0.0
2018-Jun-17 04:00N 26°04' W 080°08'0 0.0
2018-Jun-17 03:30N 26°04' W 080°08'0 0.0
2018-Jun-17 03:00N 26°04' W 080°08'0 1.0
2018-Jun-17 02:30N 26°04' W 080°07'3 5.3
2018-Jun-17 02:00N 26°06' W 080°05'5 9.5
2018-Jun-17 01:30N 26°04' W 079°60'4 8.1
2018-Jun-17 01:00N 26°05' W 079°56'2 3.1
2018-Jun-17 00:30N 26°05' W 079°54'1 1.3
2018-Jun-17 00:00N 26°04' W 079°54'0 0.4
2018-Jun-16 23:30N 26°04' W 079°54'2 3.5
2018-Jun-16 23:00N 26°05' W 079°52'1 2.5
2018-Jun-16 22:30N 26°04' W 079°50'2 3.1
2018-Jun-16 22:00N 26°03' W 079°50'2 3.8
2018-Jun-16 21:30N 26°01' W 079°50'2 4.6
2018-Jun-16 21:00N 25°59' W 079°49'510.0
2018-Jun-16 20:29N 25°58' W 079°43'510.3
2018-Jun-16 20:00N 25°56' W 079°38'510.3
2018-Jun-16 19:29N 25°55' W 079°32'11 0.3
2018-Jun-15 01:32N 26°06' W 079°35'1 9.3
2018-Jun-15 01:29N 26°06' W 079°35'7 9.3
2018-Jun-15 00:45N 26°06' W 079°43'2 9.1
2018-Jun-15 00:30N 26°06' W 079°45'5 9.6
2018-Jun-15 00:00N 26°06' W 079°51'5 9.9
2018-Jun-14 23:30N 26°06' W 079°56'510.0
2018-Jun-14 23:00N 26°05' W 080°02'4 8.9
2018-Jun-14 22:30N 26°06' W 080°07'2 4.0
2018-Jun-14 22:00N 26°04' W 080°07'0 0.7
2018-Jun-14 21:30N 26°04' W 080°08'0 0.0
2018-Jun-14 21:00N 26°04' W 080°08'0 0.0
2018-Jun-14 20:30N 26°04' W 080°08'0 0.0
2018-Jun-14 20:00N 26°04' W 080°08'0 0.0
2018-Jun-14 19:30N 26°04' W 080°08'0 0.0
2018-Jun-14 19:00N 26°04' W 080°08'0 0.0
2018-Jun-14 18:30N 26°04' W 080°08'1 1.5
2018-Jun-14 17:50N 26°04' W 080°07'2 4.9
2018-Jun-14 17:30N 26°06' W 080°06'5 9.9
2018-Jun-14 17:00N 26°04' W 080°01'510.5
2018-Jun-14 16:30N 26°02' W 079°55'510.1
2018-Jun-14 16:00N 26°01' W 079°50'510.2
2018-Jun-14 15:30N 25°60' W 079°44'510.3
2018-Jun-14 15:00N 25°58' W 079°39'510.4
2018-Jun-14 14:30N 25°57' W 079°33'  
Track history (hours):
 
Tides and Currents Weather Stations Pressure Air Temp Water Temp Dewpoint Dewpoint Depression Visibility Wind Speed Wind Dir Waves Ship Positions

Emerald Express

Last reported at 2018-Jun-23 08:25 UTC. Time now 2018-Jun-24 09:11 UTC.
Position N 25°48' W 079°33'.

Length 53 m; draft 2 m.

Type: Cargo ship. MMSI: 354580000.

Date/timePositionNaut miles runAvg speedWind from/ knotsBaromVisibWave heightAir tempDewpointWater temp
2018-Jun-23 08:25N 25°48' W 079°33'3 6.6
2018-Jun-23 08:00N 25°49' W 079°35'3 6.4
2018-Jun-23 07:30N 25°51' W 079°38'3 6.1
2018-Jun-23 07:00N 25°52' W 079°41'3 5.8
2018-Jun-23 06:30N 25°54' W 079°44'3 5.7
2018-Jun-23 06:00N 25°56' W 079°47'3 5.6
2018-Jun-23 05:30N 25°57' W 079°49'3 5.7
2018-Jun-23 05:00N 25°58' W 079°52'3 5.8
2018-Jun-23 04:30N 25°60' W 079°55'3 6.0
2018-Jun-23 04:00N 26°02' W 079°58'3 5.8
2018-Jun-23 03:30N 26°03' W 080°00'3 6.1
2018-Jun-23 03:00N 26°05' W 080°03'3 6.1
2018-Jun-23 02:28N 26°05' W 080°07'2 3.6
2018-Jun-23 02:00N 26°04' W 080°08'0 0.0
2018-Jun-23 01:30N 26°04' W 080°08'0 0.0
2018-Jun-23 01:00N 26°04' W 080°08'0 0.0
2018-Jun-23 00:30N 26°04' W 080°08'0 0.0
2018-Jun-23 00:00N 26°04' W 080°08'0 0.0
2018-Jun-22 23:30N 26°04' W 080°08'0 0.0
2018-Jun-22 23:00N 26°04' W 080°08'0 0.0
2018-Jun-22 22:30N 26°04' W 080°08'0 0.0
2018-Jun-22 22:00N 26°04' W 080°08'0 0.0
2018-Jun-22 21:30N 26°04' W 080°08'0 0.0
2018-Jun-22 20:59N 26°04' W 080°08'0 0.0
2018-Jun-22 20:30N 26°04' W 080°08'0 0.0
2018-Jun-22 20:00N 26°04' W 080°08'0 0.0
2018-Jun-22 19:30N 26°04' W 080°08'0 0.0
2018-Jun-22 19:00N 26°04' W 080°08'0 0.0
2018-Jun-22 18:30N 26°04' W 080°08'0 0.3
2018-Jun-22 18:00N 26°04' W 080°08'3 5.6
2018-Jun-22 17:30N 26°06' W 080°06'510.2
2018-Jun-22 17:00N 26°04' W 080°00'510.2
2018-Jun-22 16:30N 26°02' W 079°55'510.0
2018-Jun-22 16:00N 26°01' W 079°50'510.0
2018-Jun-22 15:30N 25°59' W 079°44'510.2
2018-Jun-22 15:00N 25°58' W 079°39'510.1
2018-Jun-22 14:30N 25°56' W 079°34'  
2018-Jun-19 21:15N 26°05' W 079°34'2 8.7
2018-Jun-19 21:00N 26°05' W 079°37'4 8.6
2018-Jun-19 20:30N 26°05' W 079°41'4 8.3
2018-Jun-19 20:00N 26°05' W 079°46'4 8.2
2018-Jun-19 19:30N 26°05' W 079°51'4 8.2
2018-Jun-19 19:00N 26°05' W 079°55'4 8.3
2018-Jun-19 18:30N 26°05' W 079°60'4 8.4
2018-Jun-19 18:00N 26°05' W 080°05'3 5.6
2018-Jun-19 17:30N 26°04' W 080°07'1 1.3
2018-Jun-19 17:00N 26°04' W 080°08'0 0.0
2018-Jun-19 16:30N 26°04' W 080°08'0 0.1
2018-Jun-19 16:00N 26°04' W 080°08'0 0.0
2018-Jun-19 15:30N 26°04' W 080°08'0 0.0
2018-Jun-19 15:00N 26°04' W 080°08'0 0.0
2018-Jun-19 14:30N 26°04' W 080°08'0 0.0
2018-Jun-19 14:00N 26°04' W 080°08'0 0.0
2018-Jun-19 13:30N 26°04' W 080°08'0 0.0
2018-Jun-19 13:00N 26°04' W 080°08'0 0.0
2018-Jun-19 12:30N 26°04' W 080°08'0 0.0
2018-Jun-19 12:00N 26°04' W 080°08'0 0.0
2018-Jun-19 11:29N 26°04' W 080°08'0 0.0
2018-Jun-19 11:00N 26°04' W 080°08'0 0.0
2018-Jun-19 10:30N 26°04' W 080°08'0 0.0
2018-Jun-19 10:00N 26°04' W 080°08'0 0.0
2018-Jun-19 09:30N 26°04' W 080°08'0 0.0
2018-Jun-19 09:00N 26°04' W 080°08'0 0.0
2018-Jun-19 08:30N 26°04' W 080°08'0 0.0
2018-Jun-19 07:58N 26°04' W 080°08'0 0.0
2018-Jun-19 07:30N 26°04' W 080°08'0 0.0
2018-Jun-19 07:00N 26°04' W 080°08'0 0.0
2018-Jun-19 06:30N 26°04' W 080°08'0 0.0
2018-Jun-19 06:00N 26°04' W 080°08'0 0.0
2018-Jun-19 05:30N 26°04' W 080°08'0 0.0
2018-Jun-19 05:00N 26°04' W 080°08'0 0.0
2018-Jun-19 04:30N 26°04' W 080°08'0 0.0
2018-Jun-19 04:00N 26°04' W 080°08'0 0.0
2018-Jun-19 03:30N 26°04' W 080°08'0 0.0
2018-Jun-19 03:00N 26°04' W 080°08'0 0.0
2018-Jun-19 02:30N 26°04' W 080°08'0 0.0
2018-Jun-19 02:00N 26°04' W 080°08'0 0.0
2018-Jun-19 01:30N 26°04' W 080°08'0 0.0
2018-Jun-19 01:00N 26°04' W 080°08'0 0.0
2018-Jun-19 00:30N 26°04' W 080°08'0 0.0
2018-Jun-19 00:00N 26°04' W 080°08'1 1.7
2018-Jun-18 23:30N 26°04' W 080°07'0 0.6
2018-Jun-18 22:59N 26°04' W 080°07'1 1.2
2018-Jun-18 22:30N 26°04' W 080°08'0 0.0
2018-Jun-18 22:00N 26°04' W 080°08'0 0.0
2018-Jun-18 21:30N 26°04' W 080°08'0 0.0
2018-Jun-18 21:00N 26°04' W 080°08'0 0.0
2018-Jun-18 20:30N 26°04' W 080°08'0 0.0
2018-Jun-18 20:00N 26°04' W 080°08'0 0.0
2018-Jun-18 19:30N 26°04' W 080°08'0 0.0
2018-Jun-18 19:00N 26°04' W 080°08'0 0.0
2018-Jun-18 18:30N 26°04' W 080°08'0 0.0
2018-Jun-18 18:00N 26°04' W 080°08'0 0.0
2018-Jun-18 17:29N 26°04' W 080°08'0 0.0
2018-Jun-18 17:00N 26°04' W 080°08'0 0.0
2018-Jun-18 16:29N 26°04' W 080°08'0 0.0
2018-Jun-18 16:00N 26°04' W 080°08'0 0.1
2018-Jun-18 15:30N 26°04' W 080°08'0 0.0
2018-Jun-18 15:00N 26°04' W 080°08'0 0.0
2018-Jun-18 14:30N 26°04' W 080°08'0 0.0
2018-Jun-18 14:00N 26°04' W 080°08'0 0.0
2018-Jun-18 13:30N 26°04' W 080°08'0 0.0
2018-Jun-18 13:00N 26°04' W 080°08'0 0.0
2018-Jun-18 12:30N 26°04' W 080°08'0 0.0
2018-Jun-18 12:00N 26°04' W 080°08'0 0.0
2018-Jun-18 11:30N 26°04' W 080°08'0 0.0
2018-Jun-18 11:00N 26°04' W 080°08'0 0.0
2018-Jun-18 10:30N 26°04' W 080°08'0 0.0
2018-Jun-18 10:00N 26°04' W 080°08'0 0.0
2018-Jun-18 09:30N 26°04' W 080°08'0 0.0
2018-Jun-18 08:59N 26°04' W 080°08'0 0.0
2018-Jun-18 08:30N 26°04' W 080°08'0 0.0
2018-Jun-18 08:00N 26°04' W 080°08'0 0.0
2018-Jun-18 07:30N 26°04' W 080°08'0 0.0
2018-Jun-18 07:00N 26°04' W 080°08'0 0.0
2018-Jun-18 06:30N 26°04' W 080°08'0 0.0
2018-Jun-18 06:00N 26°04' W 080°08'0 0.0
2018-Jun-18 05:30N 26°04' W 080°08'0 0.0
2018-Jun-18 05:00N 26°04' W 080°08'0 0.0
2018-Jun-18 04:30N 26°04' W 080°08'0 0.0
2018-Jun-18 03:59N 26°04' W 080°08'0 0.0
2018-Jun-18 03:30N 26°04' W 080°08'0 0.0
2018-Jun-18 03:00N 26°04' W 080°08'0 0.0
2018-Jun-18 02:30N 26°04' W 080°08'0 0.0
2018-Jun-18 02:00N 26°04' W 080°08'0 0.0
2018-Jun-18 01:30N 26°04' W 080°08'0 0.0
2018-Jun-18 01:00N 26°04' W 080°08'0 0.0
2018-Jun-18 00:30N 26°04' W 080°08'0 0.0
2018-Jun-18 00:00N 26°04' W 080°08'0 0.0
2018-Jun-17 23:30N 26°04' W 080°08'0 0.0
2018-Jun-17 23:00N 26°04' W 080°08'0 0.0
2018-Jun-17 22:30N 26°04' W 080°08'0 0.0
2018-Jun-17 22:00N 26°04' W 080°08'0 0.0
2018-Jun-17 21:30N 26°04' W 080°08'0 0.0
2018-Jun-17 21:00N 26°04' W 080°08'0 0.0
2018-Jun-17 20:30N 26°04' W 080°08'0 0.0
2018-Jun-17 20:00N 26°04' W 080°08'0 0.0
2018-Jun-17 19:30N 26°04' W 080°08'0 0.0
2018-Jun-17 19:00N 26°04' W 080°08'0 0.0
2018-Jun-17 18:30N 26°04' W 080°08'0 0.0
2018-Jun-17 18:00N 26°04' W 080°08'0 0.0
2018-Jun-17 17:30N 26°04' W 080°08'0 0.0
2018-Jun-17 17:00N 26°04' W 080°08'0 0.0
2018-Jun-17 16:30N 26°04' W 080°08'0 0.0
2018-Jun-17 16:00N 26°04' W 080°08'0 0.0
2018-Jun-17 15:30N 26°04' W 080°08'0 0.0
2018-Jun-17 15:00N 26°04' W 080°08'0 0.0
2018-Jun-17 14:30N 26°04' W 080°08'0 0.0
2018-Jun-17 13:59N 26°04' W 080°08'0 0.0
2018-Jun-17 13:30N 26°04' W 080°08'0 0.0
2018-Jun-17 13:00N 26°04' W 080°08'0 0.0
2018-Jun-17 12:30N 26°04' W 080°08'0 0.0
2018-Jun-17 12:00N 26°04' W 080°08'0 0.1
2018-Jun-17 11:30N 26°04' W 080°08'0 0.0
2018-Jun-17 11:00N 26°04' W 080°08'0 0.0
2018-Jun-17 10:30N 26°04' W 080°08'0 0.0
2018-Jun-17 10:00N 26°04' W 080°08'0 0.0
2018-Jun-17 09:30N 26°04' W 080°08'0 0.0
2018-Jun-17 08:58N 26°04' W 080°08'0 0.0
2018-Jun-17 08:30N 26°04' W 080°08'0 0.0
2018-Jun-17 08:00N 26°04' W 080°08'0 0.0
2018-Jun-17 07:30N 26°04' W 080°08'0 0.0
2018-Jun-17 07:00N 26°04' W 080°08'0 0.0
2018-Jun-17 06:30N 26°04' W 080°08'0 0.0
2018-Jun-17 06:00N 26°04' W 080°08'0 0.0
2018-Jun-17 05:29N 26°04' W 080°08'0 0.0
2018-Jun-17 05:00N 26°04' W 080°08'0 0.0
2018-Jun-17 04:30N 26°04' W 080°08'0 0.0
2018-Jun-17 04:00N 26°04' W 080°08'0 0.0
2018-Jun-17 03:30N 26°04' W 080°08'0 0.0
2018-Jun-17 03:00N 26°04' W 080°08'0 1.0
2018-Jun-17 02:30N 26°04' W 080°07'3 5.3
2018-Jun-17 02:00N 26°06' W 080°05'5 9.5
2018-Jun-17 01:30N 26°04' W 079°60'4 8.1
2018-Jun-17 01:00N 26°05' W 079°56'2 3.1
2018-Jun-17 00:30N 26°05' W 079°54'1 1.3
2018-Jun-17 00:00N 26°04' W 079°54'0 0.4
2018-Jun-16 23:30N 26°04' W 079°54'2 3.5
2018-Jun-16 23:00N 26°05' W 079°52'1 2.5
2018-Jun-16 22:30N 26°04' W 079°50'2 3.1
2018-Jun-16 22:00N 26°03' W 079°50'2 3.8
2018-Jun-16 21:30N 26°01' W 079°50'2 4.6
2018-Jun-16 21:00N 25°59' W 079°49'510.0
2018-Jun-16 20:29N 25°58' W 079°43'510.3
2018-Jun-16 20:00N 25°56' W 079°38'510.3
2018-Jun-16 19:29N 25°55' W 079°32'11 0.3
2018-Jun-15 01:32N 26°06' W 079°35'1 9.3
2018-Jun-15 01:29N 26°06' W 079°35'7 9.3
2018-Jun-15 00:45N 26°06' W 079°43'2 9.1
2018-Jun-15 00:30N 26°06' W 079°45'5 9.6
2018-Jun-15 00:00N 26°06' W 079°51'5 9.9
2018-Jun-14 23:30N 26°06' W 079°56'510.0
2018-Jun-14 23:00N 26°05' W 080°02'4 8.9
2018-Jun-14 22:30N 26°06' W 080°07'2 4.0
2018-Jun-14 22:00N 26°04' W 080°07'0 0.7
2018-Jun-14 21:30N 26°04' W 080°08'0 0.0
2018-Jun-14 21:00N 26°04' W 080°08'0 0.0
2018-Jun-14 20:30N 26°04' W 080°08'0 0.0
2018-Jun-14 20:00N 26°04' W 080°08'0 0.0
2018-Jun-14 19:30N 26°04' W 080°08'0 0.0
2018-Jun-14 19:00N 26°04' W 080°08'0 0.0
2018-Jun-14 18:30N 26°04' W 080°08'1 1.5
2018-Jun-14 17:50N 26°04' W 080°07'2 4.9
2018-Jun-14 17:30N 26°06' W 080°06'5 9.9
2018-Jun-14 17:00N 26°04' W 080°01'510.5
2018-Jun-14 16:30N 26°02' W 079°55'510.1
2018-Jun-14 16:00N 26°01' W 079°50'510.2
2018-Jun-14 15:30N 25°60' W 079°44'510.3
2018-Jun-14 15:00N 25°58' W 079°39'510.4
2018-Jun-14 14:30N 25°57' W 079°33'  

Dump ship's entire track history